Regional Weather Roundup
Issued by NWS Charleston, SC

Current Version | Previous Version | Graphics & Text | Print | Product List | Glossary On
Versions: 1 2 3 4 5 6 7 8 9 10 11 12 13 14 15 16 17 18 19 20 21 22 23 24 25 26 27 28 29 30 31 32 33 34 35 36 37 38 39 40 41 42 43 44 45 46 47 48 49 50
000
ASUS42 KCHS 030728
RWRCHS

REGIONAL WEATHER ROUNDUP
NATIONAL WEATHER SERVICE CHARLESTON SC
300 AM EDT TUE MAY 03 2016

NOTE: "FAIR" INDICATES FEW OR NO CLOUDS BELOW 12,000 FEET WITH NO
SIGNIFICANT WEATHER AND/OR OBSTRUCTIONS TO VISIBILITY.

NOT ALL STATIONS ARE QUALITY CONTROLLED. USE DATA WITH CAUTION...
ESPECIALLY DEWPOINT OBSERVATIONS.

SCZ027-030-031-034>040-042>050-030800-
...SOUTHEAST SOUTH CAROLINA...

CITY           SKY/WX    TMP DP  RH WIND       PRES   REMARKS
N CHARLESTON   MOCLDY    72  67  84 S12       29.89F
WATERFRONT PRK   N/A     73  69  87 S12       29.89F
MOUNT PLEASANT FAIR      72  66  83 S10       29.90F
JOHNS ISLAND   CLOUDY    72  70  94 SE9       29.90F
PINOPOLIS        N/A     75  72  88 S5        29.82F
MONCKS CORNER  CLOUDY    70  66  88 S9        29.88F
SUMMERVILLE    CLOUDY    72  72 100 S5        29.90S
BEAUFORT MCAS  CLOUDY    74  72  93 S7        29.89F
BEAUFORT ARPT  CLOUDY    73  72  94 S6        29.89F
HILTON HEAD IS MOCLDY    75  75 100 S9        29.90F
WALTERBORO     PTSUNNY   73  73 100 S9        29.89F
ALLENDALE      CLOUDY    72  70  94 CALM      29.88F

...SOUTHERN MIDLANDS AND PEE DEE...

CITY           SKY/WX    TMP DP  RH WIND       PRES   REMARKS
GEORGETOWN     FAIR      72  70  94 SW12      29.89F
KINGSTREE      CLOUDY    72  68  88 S3        29.88S
ORANGEBURG     CLOUDY    70  68  93 W5        29.89F
BARNWELL       CLOUDY    70  70 100 CALM      29.90F
AIKEN          FAIR      64  64 100 S6        29.92F
MANNING        CLOUDY    72  70  94 S5        29.88F
COLUMBIA       TSTM      68  66  93 S7        29.89S FOG
SUMTER         NOT AVBL
FLORENCE       CLOUDY    71  69  93 SW6       29.88F
MYRTLE BEACH   CLOUDY    73  66  78 S12       29.90F
N MYRTLE BEACH CLOUDY    73  70  90 S13       29.88F

$$

GAZ063-065-086>088-099>101-113>116-118-119-134>141-150-030800-
...SOUTHEAST GEORGIA...

CITY           SKY/WX    TMP DP  RH WIND       PRES   REMARKS
SAVANNAH ARPT  CLOUDY    74  71  91 S7        29.89F
HUNTER AAF     NOT AVBL
FORT STEWART   CLOUDY    72  70  94 CALM      29.90S
STATESBORO     CLOUDY    74  74 100 S3        29.88F
SYLVANIA       CLOUDY    72  72 100 S5        29.89F FOG
CLAXTON        FAIR      71  71 100 CALM      29.89F FOG

...CSRA...CENTRAL AND FAR SOUTHEAST GEORGIA...

CITY           SKY/WX    TMP DP  RH WIND       PRES   REMARKS
THOMSON        NOT AVBL
AUGUSTA-BUSH   CLOUDY    66  66 100 SE3       29.88F
AUGUSTA-DANIEL CLOUDY    68  65  90 SE7       29.89F
SWAINSBORO     CLOUDY    70  68  94 CALM      29.91S
VIDALIA        CLOUDY    70  68  94 CALM      29.89S
EASTMAN        FAIR     N/A N/A N/A CALM      29.92F HAZE
HAZLEHURST     PTSUNNY   72  72 100 SW5       29.89F
ALMA           MOCLDY    70  69  97 S3        29.89F
WAYCROSS       CLOUDY    70  69  96 SW5       29.89F
JESUP          FAIR      72  72 100 CALM      29.90F
BAXLEY         FAIR      72  72 100 CALM      29.89F
BRUNSWICK      MOCLDY    77  73  88 SW5       29.91S
SAINT SIMONS   CLOUDY    74  73  97 S6        29.90F

$$

SCZ027-028-034-036>038-045-046-048>050-GAZ119-141-030800-
...LAKE AND SUPPLEMENTAL COASTAL OBSERVATIONS...

STATION/POSITION TIME  TEMP    WIND        PRES    WAVE   SWELL
                       AIR SEA DIR/SP/G            HT/PER HT/PER/DIR
                 (UTC) (F)     (DEG/KT/KT) (MB)    (FT/S) (FT/S/D)
WINYAH BAY       0645   74     200/  9     1012.0S
LAKE MURRAY      0600   68     190/  7/  9 1012.2F
ACE BASIN NERRS  0600   74        CALM     1013.0F
FORT PULASKI     0700   75 75  190/  6/ 10 1012.6F
SAPELO ISLAND    0700   74     170/  7     1012.0F

$$

ANZ835-935-AMZ111-154-330-350-352-354-370-450-454-472-030800-
...C-MAN AND BUOY OBSERVATIONS...

STATION/POSITION TIME  TEMP    WIND        PRES    WAVE   SWELL
                       AIR SEA DIR/SP/G            HT/PER HT/PER/DIR
                 (UTC) (F)     (DEG/KT/KT) (MB)    (FT/S) (FT/S/D)
BUOY 41004       0650   77 75  190/ 16/ 17 1012.0F   4/ 5   2/ 9
BUOY 41008       NOT AVBL
FOLLY BEACH CMAN 0700   71     170/ 15/ 17 1012.8F
CAPERS NEARSHORE 0608   75 74  200/ 16/ 21 1012.6F
FRIPP NEARSHORE  0708   75 72  210/ 14/ 17 1011.3F


STATION/POSITION TIME  TEMP    WIND        PRES    WAVE   SWELL
                       AIR SEA DIR/SP/G            HT/PER HT/PER/DIR
                 (UTC) (F)     (DEG/KT/KT) (MB)    (FT/S) (FT/S/D)
5E ST. MARYS GA  0621      73                N/A     4/ 5
FRYING PAN BUOY  0700   73 73  190/ 14/ 17 1012.6F
BUOY 41025       0650   74 74  210/ 16/ 19 1012.2F   4/ 9   2/100/ 9
CAPE LOOKOUT NC  0700   71     200/ 14/ 16 1011.9F
BUOY 41002       0650   74 74  160/ 17/ 19 1016.5F   4/10   3/ 40/10
BUOY 41010       0620   78 79  170/ 17/ 21 1015.7F
ST AUGUSTINE FL  0700   74 73  200/  8/ 10 1013.8F


$$




USA.gov is the U.S. government's official web portal to all federal, state and local government web resources and services.